sat.trackr.live / text

‹ back to catalog

STARLINK-36466

NORAD 67358 · 2026-003AA

PAYLOAD ACTIVE UNKNOWN

§ Identity

Operator
Country
US
Launch date
2026-01-09
Launch site
AFETR
Launch vehicle
Mass (kg)
RCS (m²)

Purposes: comms

External: N2YO · Heavens-Above · Gunter

§ Orbital elements

Epoch: 2026-05-25T00:55:27.682176Z

Period
94.27 min
Inclination
42.9995°
Eccentricity
0.0001169
Mean motion
15.27600179 rev/d
Perigee alt
482.2 km
Apogee alt
483.8 km
Semi-major
6,861.1 km
B*
5.7726e-4
RAAN
155.6070°
Arg perigee
263.2950°
Mean anomaly
96.7769°
Rev number
2,050

§ Raw data

STARLINK-364661 67358U 26003AA  26145.03851484  .00015666  00000+0  57726-3 0  99942 67358  42.9995 155.6070 0001169 263.2950  96.7769 15.27600179 20506

JSON: /api/v1/satellites/67358 · /tle

For live sub-satellite position, see the globe view (requires WebGL).

§ Visibility from observer

Set your observer location to see the next 7 days of passes ≥ 10°. The values pass through the URL so the page stays shareable.

No JS? Fill the form by hand. The geolocation button needs JavaScript.